Location: Eymir
(36.7333°N, 29.7833°E)
Time: 17:10:31
(UTC+00:00)

Cosmos 1743 Rocket - Pass Details

Date: 14 January 2026
Orbit: 597 x 626 km, 82.6° (Epoch: 17 February)

Event Time Altitude Azimuth Distance (km) Brightness Sun altitude
Rises 03:44:22 0° 180° (S) 2,894 7.2 -17.5°
Reaches altitude 10° 03:46:35 10° 177° (S) 1,992 6.4 -17.0°
Maximum altitude 03:50:59 69° 95° (E) 670 3.9 -16.2°
Drops below altitude 10° 03:55:23 10° 12° (NNE) 2,001 6.1 -15.3°
Sets 03:57:38 0° 10° (N) 2,908 7.0 -14.9°
